Tracking 19969 objects as of 13-Nov-2019
Live streaming from Space Station
objects crossing your sky now
Track the group of recently launched Starlink satellites

FLOCK 2E 1


FLOCK 2E 1 is no longer on orbit
FLOCK 2E 1 is classified as:


NORAD ID: 41483
Int'l Code: 1998-067JD
Perigee: N/A
Apogee: N/A
Inclination: N/A
Period: N/A
Semi major axis: N/A
RCS: N/A
Launch date: November 20, 1998
Source: United States (US)
Launch site: TYURATAM MISSILE AND SPACE COMPLEX (TTMTR)
Decay date: 2018-06-16
aabbcc
Your satellite tracking list
Your tracking list is empty




NASA's NSSDC Master Catalog

Two Line Element Set (TLE):
1 41483U 98067JD  18167.79424370  .23073250  12524-4  26456-3 0  9995
2 41483  51.5697 289.5415 0010562 139.3200 223.3455 16.49380679119324
Source of the keplerian elements: AFSPC